,,,PA_Meas_PMT16A,,PR_Meas_QMR101_102,,RH_Meas_QMH101,,SR_Meas_QMS101,,TA_Meas_QMH101,,GenWind,,GenWind,
date,time,status,PA,status,PR,status,RH,status,SR,status,TA,status,DirAvg,status,SpdAvg,
2009-12-17, 00:00:04,VALID,1002.76,VALID,0,VALID,91.296,VALID,0,VALID,23.35,VALID,160,VALID,0,
2009-12-17, 00:01:04,VALID,1002.74,VALID,0,VALID,91.3494,VALID,0,VALID,23.3695,VALID,160,VALID,0,
2009-12-17, 00:02:04,VALID,1002.73,VALID,0,VALID,91.1892,VALID,0,VALID,23.389,VALID,156,VALID,0,
2009-12-17, 00:03:04,VALID,1002.7,VALID,0,VALID,91.1206,VALID,0,VALID,23.4475,VALID,156,VALID,0,
2009-12-17, 00:04:04,VALID,1002.7,VALID,0,VALID,90.823,VALID,0,VALID,23.4671,VALID,156,VALID,0,
2009-12-17, 00:05:04,VALID,1002.68,VALID,0,VALID,90.5178,VALID,0,VALID,23.4475,VALID,258,VALID,0,
2009-12-17, 00:06:04,VALID,1002.66,VALID,0,VALID,90.4568,VALID,0,VALID,23.4085,VALID,269,VALID,0,
2009-12-17, 00:07:04,VALID,1002.63,VALID,0,VALID,90.8917,VALID,0,VALID,23.4103,VALID,277,VALID,0,
2009-12-17, 00:08:04,VALID,1002.65,VALID,0,VALID,90.8993,VALID,0,VALID,23.3908,VALID,284,VALID,0,
2009-12-17, 00:09:04,VALID,1002.66,VALID,0,VALID,90.884,VALID,0,VALID,23.3323,VALID,284,VALID,0,
2009-12-17, 00:10:04,VALID,1002.62,VALID,0,VALID,91.1434,VALID,0,VALID,23.2915,VALID,284,VALID,0,
2009-12-17, 00:11:04,VALID,1002.62,VALID,0,VALID,91.3266,VALID,0,VALID,23.2719,VALID,284,VALID,0,
2009-12-17, 00:12:04,VALID,1002.59,VALID,0,VALID,90.9374,VALID,0,VALID,23.2524,VALID,284,VALID,0,
2009-12-17, 00:13:04,VALID,1002.57,VALID,0,VALID,91.3342,VALID,0,VALID,23.2152,VALID,284,VALID,0,
2009-12-17, 00:14:04,VALID,1002.53,VALID,0,VALID,91.6165,VALID,0,VALID,23.2134,VALID,1,VALID,0,
2009-12-17, 00:15:04,VALID,1002.52,VALID,0,VALID,91.7843,VALID,0,VALID,23.1939,VALID,45,VALID,0,
2009-12-17, 00:16:04,VALID,1002.53,VALID,0,VALID,91.7767,VALID,0,VALID,23.2134,VALID,61,VALID,0,
2009-12-17, 00:17:04,VALID,1002.53,VALID,0,VALID,91.8377,VALID,0,VALID,23.2347,VALID,61,VALID,0,
2009-12-17, 00:18:04,VALID,1002.54,VALID,0,VALID,91.7462,VALID,0,VALID,23.2329,VALID,61,VALID,0,
2009-12-17, 00:19:04,VALID,1002.53,VALID,0,VALID,91.8454,VALID,0,VALID,23.2524,VALID,61,VALID,0,
2009-12-17, 00:20:04,VALID,1002.54,VALID,0,VALID,91.7767,VALID,0,VALID,23.2542,VALID,59,VALID,0,
2009-12-17, 00:21:04,VALID,1002.54,VALID,0,VALID,91.6317,VALID,0,VALID,23.2134,VALID,59,VALID,0,
2009-12-17, 00:22:04,VALID,1002.53,VALID,0,VALID,91.4181,VALID,0,VALID,23.1744,VALID,53,VALID,0,
2009-12-17, 00:23:04,VALID,1002.54,VALID,0,VALID,91.441,VALID,0,VALID,23.1159,VALID,53,VALID,0,
2009-12-17, 00:24:04,VALID,1002.54,VALID,0,VALID,91.502,VALID,0,VALID,23.0964,VALID,53,VALID,0,
2009-12-17, 00:25:04,VALID,1002.51,VALID,0,VALID,91.5402,VALID,0,VALID,23.0786,VALID,53,VALID,0,
2009-12-17, 00:26:04,VALID,1002.48,VALID,0,VALID,91.6012,VALID,0,VALID,23.0378,VALID,53,VALID,0,
2009-12-17, 00:27:04,VALID,1002.45,VALID,0,VALID,91.6088,VALID,0.112286,VALID,22.9971,VALID,53,VALID,0,
2009-12-17, 00:28:04,VALID,1002.42,VALID,0,VALID,91.7309,VALID,0,VALID,22.9988,VALID,53,VALID,0,
2009-12-17, 00:29:04,VALID,1002.41,VALID,0,VALID,91.9064,VALID,0,VALID,22.9776,VALID,53,VALID,0,
2009-12-17, 00:30:04,VALID,1002.36,VALID,0,VALID,91.9751,VALID,0,VALID,22.9793,VALID,53,VALID,0,
2009-12-17, 00:31:04,VALID,1002.39,VALID,0,VALID,92.0209,VALID,0.112286,VALID,22.9598,VALID,53,VALID,0,
2009-12-17, 00:32:04,VALID,1002.37,VALID,0,VALID,92.0819,VALID,0,VALID,22.9385,VALID,53,VALID,0,
2009-12-17, 00:33:04,VALID,1002.38,VALID,0,VALID,92.1811,VALID,0,VALID,22.9385,VALID,53,VALID,0,
2009-12-17, 00:34:04,VALID,1002.35,VALID,0,VALID,92.1811,VALID,0.112286,VALID,22.9403,VALID,53,VALID,0,
2009-12-17, 00:35:04,VALID,1002.36,VALID,0,VALID,92.204,VALID,0.112286,VALID,22.919,VALID,57,VALID,0,
2009-12-17, 00:36:04,VALID,1002.36,VALID,0,VALID,92.1429,VALID,0.112286,VALID,22.88,VALID,71,VALID,0,
2009-12-17, 00:37:04,VALID,1002.36,VALID,0,VALID,92.2116,VALID,0.112286,VALID,22.88,VALID,72,VALID,0,
2009-12-17, 00:38:04,VALID,1002.36,VALID,0,VALID,92.2345,VALID,0.112286,VALID,22.88,VALID,89,VALID,0,
2009-12-17, 00:39:04,VALID,1002.35,VALID,0,VALID,92.2421,VALID,0.112286,VALID,22.8623,VALID,89,VALID,0,
2009-12-17, 00:40:04,VALID,1002.37,VALID,0,VALID,92.2421,VALID,0,VALID,22.841,VALID,89,VALID,0,
2009-12-17, 00:41:04,VALID,1002.36,VALID,0,VALID,92.265,VALID,0.112286,VALID,22.8215,VALID,89,VALID,0,
2009-12-17, 00:42:04,VALID,1002.32,VALID,0,VALID,92.3489,VALID,0,VALID,22.8445,VALID,89,VALID,0,
2009-12-17, 00:43:04,VALID,1002.32,VALID,0,VALID,92.3566,VALID,0,VALID,22.8232,VALID,89,VALID,0,
2009-12-17, 00:44:04,VALID,1002.35,VALID,0,VALID,92.3642,VALID,0,VALID,22.8037,VALID,89,VALID,0,
2009-12-17, 00:45:04,VALID,1002.32,VALID,0,VALID,92.326,VALID,0,VALID,22.8055,VALID,89,VALID,0,
2009-12-17, 00:46:04,VALID,1002.34,VALID,0,VALID,92.3031,VALID,0,VALID,22.7452,VALID,25,VALID,0,
2009-12-17, 00:47:04,VALID,1002.34,VALID,0,VALID,92.2803,VALID,0,VALID,22.7469,VALID,25,VALID,0,
2009-12-17, 00:48:04,VALID,1002.32,VALID,0,VALID,92.2268,VALID,0,VALID,22.6884,VALID,25,VALID,0,
2009-12-17, 00:49:04,VALID,1002.31,VALID,0,VALID,92.3947,VALID,0,VALID,22.6477,VALID,25,VALID,0,
2009-12-17, 00:50:04,VALID,1002.29,VALID,0,VALID,92.5549,VALID,0,VALID,22.6672,VALID,25,VALID,0,
2009-12-17, 00:51:04,VALID,1002.3,VALID,0,VALID,92.3947,VALID,0,VALID,22.6282,VALID,25,VALID,0,
2009-12-17, 00:52:04,VALID,1002.32,VALID,0,VALID,92.12,VALID,0,VALID,22.5306,VALID,25,VALID,0,
2009-12-17, 00:53:04,VALID,1002.31,VALID,0,VALID,92.265,VALID,0,VALID,22.4721,VALID,26,VALID,0,
2009-12-17, 00:54:04,VALID,1002.32,VALID,0,VALID,92.5015,VALID,0,VALID,22.4738,VALID,27,VALID,0,
2009-12-17, 00:55:04,VALID,1002.28,VALID,0,VALID,92.738,VALID,0,VALID,22.4933,VALID,27,VALID,0,
2009-12-17, 00:56:04,VALID,1002.29,VALID,0,VALID,92.8372,VALID,0,VALID,22.5128,VALID,27,VALID,0,
2009-12-17, 00:57:04,VALID,1002.28,VALID,0,VALID,92.9288,VALID,0,VALID,22.5306,VALID,27,VALID,0,
2009-12-17, 00:58:04,VALID,1002.29,VALID,0,VALID,92.9364,VALID,0,VALID,22.5306,VALID,27,VALID,0,
2009-12-17, 00:59:04,VALID,1002.26,VALID,0,VALID,92.9669,VALID,0,VALID,22.5094,VALID,27,VALID,0,
2009-12-17, 01:00:04,VALID,1002.27,VALID,0,VALID,92.8983,VALID,0,VALID,22.5289,VALID,27,VALID,0,
2009-12-17, 01:01:04,VALID,1002.28,VALID,0,VALID,93.0737,VALID,0,VALID,22.5289,VALID,39,VALID,0,
2009-12-17, 01:02:04,VALID,1002.24,VALID,0,VALID,92.8754,VALID,0.112286,VALID,22.5094,VALID,41,VALID,0,
2009-12-17, 01:03:04,VALID,1002.22,VALID,0,VALID,92.7609,VALID,0.112286,VALID,22.4704,VALID,44,VALID,0,
2009-12-17, 01:04:04,VALID,1002.25,VALID,0,VALID,92.7609,VALID,0,VALID,22.4721,VALID,45,VALID,0,
2009-12-17, 01:05:04,VALID,1002.24,VALID,0,VALID,92.6465,VALID,0.112286,VALID,22.3729,VALID,45,VALID,0,
2009-12-17, 01:06:04,VALID,1002.22,VALID,0,VALID,92.7151,VALID,0,VALID,22.3551,VALID,45,VALID,0,
2009-12-17, 01:07:04,VALID,1002.24,VALID,0,VALID,92.7991,VALID,0.112286,VALID,22.3534,VALID,42,VALID,0,
2009-12-17, 01:08:04,VALID,1002.21,VALID,0,VALID,93.0127,VALID,0,VALID,22.4119,VALID,42,VALID,0,
2009-12-17, 01:09:04,VALID,1002.23,VALID,0,VALID,93.0737,VALID,0.112286,VALID,22.4314,VALID,41,VALID,0,
2009-12-17, 01:10:04,VALID,1002.23,VALID,0,VALID,93.1424,VALID,0,VALID,22.4509,VALID,33,VALID,0,
2009-12-17, 01:11:04,VALID,1002.19,VALID,0,VALID,93.0966,VALID,0,VALID,22.4721,VALID,33,VALID,0,
2009-12-17, 01:12:04,VALID,1002.2,VALID,0,VALID,93.1729,VALID,0,VALID,22.4738,VALID,33,VALID,0,
2009-12-17, 01:13:04,VALID,1002.19,VALID,0,VALID,93.3026,VALID,0,VALID,22.5111,VALID,33,VALID,0,
2009-12-17, 01:14:04,VALID,1002.21,VALID,0,VALID,93.3789,VALID,0,VALID,22.5909,VALID,34,VALID,0,
2009-12-17, 01:15:04,VALID,1002.18,VALID,0,VALID,93.3713,VALID,0,VALID,22.5892,VALID,36,VALID,0,
2009-12-17, 01:16:04,VALID,1002.19,VALID,0,VALID,93.1805,VALID,0,VALID,22.5306,VALID,36,VALID,0,
2009-12-17, 01:17:04,VALID,1002.2,VALID,0,VALID,93.0966,VALID,0,VALID,22.4916,VALID,36,VALID,0,
2009-12-17, 01:18:04,VALID,1002.2,VALID,0,VALID,93.2721,VALID,0,VALID,22.5128,VALID,36,VALID,0,
2009-12-17, 01:19:04,VALID,1002.19,VALID,0,VALID,93.234,VALID,0,VALID,22.5323,VALID,36,VALID,0,
2009-12-17, 01:20:04,VALID,1002.17,VALID,0,VALID,93.2034,VALID,0,VALID,22.5128,VALID,36,VALID,0,
2009-12-17, 01:21:04,VALID,1002.17,VALID,0,VALID,93.1119,VALID,0,VALID,22.5128,VALID,36,VALID,0,
2009-12-17, 01:22:04,VALID,1002.15,VALID,0,VALID,93.0508,VALID,0,VALID,22.4526,VALID,36,VALID,0,
2009-12-17, 01:23:04,VALID,1002.15,VALID,0,VALID,93.1577,VALID,0,VALID,22.4738,VALID,36,VALID,0,
2009-12-17, 01:24:04,VALID,1002.15,VALID,0,VALID,93.1271,VALID,0,VALID,22.4738,VALID,40,VALID,0,
2009-12-17, 01:25:04,VALID,1002.12,VALID,0,VALID,93.0356,VALID,0,VALID,22.4348,VALID,42,VALID,0,
2009-12-17, 01:26:04,VALID,1002.11,VALID,0,VALID,92.8677,VALID,0,VALID,22.3958,VALID,42,VALID,0,
2009-12-17, 01:27:04,VALID,1002.09,VALID,0,VALID,92.738,VALID,0,VALID,22.3161,VALID,42,VALID,0,
2009-12-17, 01:28:04,VALID,1002.1,VALID,0,VALID,92.8448,VALID,0,VALID,22.2966,VALID,42,VALID,0,
2009-12-17, 01:29:04,VALID,1002.05,VALID,0,VALID,92.7914,VALID,0,VALID,22.2983,VALID,42,VALID,0,
2009-12-17, 01:30:04,VALID,1002.02,VALID,0,VALID,92.7609,VALID,0,VALID,22.2592,VALID,42,VALID,0,
2009-12-17, 01:31:04,VALID,1002.01,VALID,0,VALID,92.8372,VALID,0,VALID,22.2397,VALID,42,VALID,0,
2009-12-17, 01:32:04,VALID,1002,VALID,0,VALID,92.9288,VALID,0,VALID,22.2381,VALID,42,VALID,0,
2009-12-17, 01:33:04,VALID,1001.99,VALID,0,VALID,93.0661,VALID,0,VALID,22.2381,VALID,42,VALID,0,
2009-12-17, 01:34:04,VALID,1002.01,VALID,0,VALID,93.15,VALID,0,VALID,22.2771,VALID,42,VALID,0,
2009-12-17, 01:35:04,VALID,1002,VALID,0,VALID,93.2187,VALID,0,VALID,22.2983,VALID,42,VALID,0,
2009-12-17, 01:36:04,VALID,1002.04,VALID,0,VALID,93.356,VALID,0,VALID,22.3763,VALID,42,VALID,0,
2009-12-17, 01:37:04,VALID,1002,VALID,0,VALID,93.3866,VALID,0,VALID,22.4153,VALID,42,VALID,0,
2009-12-17, 01:38:04,VALID,1002.01,VALID,0,VALID,93.3637,VALID,0,VALID,22.4348,VALID,42,VALID,0,
2009-12-17, 01:39:04,VALID,1002.01,VALID,0,VALID,93.3179,VALID,0,VALID,22.4348,VALID,42,VALID,0,
2009-12-17, 01:40:04,VALID,1002,VALID,0,VALID,93.2645,VALID,0,VALID,22.3958,VALID,42,VALID,0,
2009-12-17, 01:41:04,VALID,1002.01,VALID,0,VALID,93.2416,VALID,0,VALID,22.3763,VALID,42,VALID,0,
2009-12-17, 01:42:04,VALID,1001.99,VALID,0,VALID,93.2416,VALID,0,VALID,22.3941,VALID,42,VALID,0,
2009-12-17, 01:43:04,VALID,1001.95,VALID,0,VALID,93.234,VALID,0,VALID,22.3941,VALID,42,VALID,0,
2009-12-17, 01:44:04,VALID,1001.96,VALID,0,VALID,93.3942,VALID,0,VALID,22.4119,VALID,42,VALID,0,
2009-12-17, 01:45:04,VALID,1001.92,VALID,0,VALID,93.4552,VALID,0,VALID,22.4916,VALID,121,VALID,0,
2009-12-17, 01:46:04,VALID,1001.95,VALID,0,VALID,93.5086,VALID,0,VALID,22.5094,VALID,121,VALID,0,
2009-12-17, 01:47:04,VALID,1001.93,VALID,0,VALID,93.5315,VALID,0,VALID,22.5696,VALID,121,VALID,0,
2009-12-17, 01:48:04,VALID,1001.93,VALID,0,VALID,93.562,VALID,0,VALID,22.5679,VALID,117,VALID,0,
2009-12-17, 01:49:04,VALID,1001.93,VALID,0,VALID,93.4628,VALID,0,VALID,22.5892,VALID,112,VALID,0,
2009-12-17, 01:50:04,VALID,1001.88,VALID,0,VALID,93.4171,VALID,0,VALID,22.5696,VALID,112,VALID,0,
2009-12-17, 01:51:04,VALID,1001.92,VALID,0,VALID,93.3331,VALID,0,VALID,22.5501,VALID,112,VALID,0,
2009-12-17, 01:52:04,VALID,1001.91,VALID,0,VALID,93.3179,VALID,0,VALID,22.5306,VALID,112,VALID,0,
2009-12-17, 01:53:04,VALID,1001.93,VALID,0,VALID,93.2416,VALID,0,VALID,22.4916,VALID,112,VALID,0,
2009-12-17, 01:54:04,VALID,1001.91,VALID,0,VALID,93.2263,VALID,0,VALID,22.4721,VALID,112,VALID,0,
2009-12-17, 01:55:04,VALID,1001.91,VALID,0,VALID,93.2645,VALID,0.112286,VALID,22.4721,VALID,112,VALID,0,
2009-12-17, 01:56:04,VALID,1001.9,VALID,0,VALID,93.3103,VALID,0,VALID,22.4916,VALID,112,VALID,0,
2009-12-17, 01:57:04,VALID,1001.9,VALID,0,VALID,93.3637,VALID,0,VALID,22.5306,VALID,112,VALID,0,
2009-12-17, 01:58:04,VALID,1001.9,VALID,0,VALID,93.3026,VALID,0,VALID,22.4899,VALID,112,VALID,0,
2009-12-17, 01:59:04,VALID,1001.9,VALID,0,VALID,93.295,VALID,0,VALID,22.4509,VALID,112,VALID,0,
2009-12-17, 02:00:04,VALID,1001.87,VALID,0,VALID,93.3866,VALID,0,VALID,22.5306,VALID,112,VALID,0,
2009-12-17, 02:01:04,VALID,1001.85,VALID,0,VALID,93.4247,VALID,0,VALID,22.5696,VALID,111,VALID,0,
2009-12-17, 02:02:04,VALID,1001.84,VALID,0,VALID,93.4018,VALID,0,VALID,22.5272,VALID,107,VALID,0,
2009-12-17, 02:03:04,VALID,1001.81,VALID,0,VALID,93.1195,VALID,0.112286,VALID,22.4721,VALID,105,VALID,0,
2009-12-17, 02:04:04,VALID,1001.79,VALID,0,VALID,92.8906,VALID,0.112286,VALID,22.3144,VALID,105,VALID,0,
2009-12-17, 02:05:04,VALID,1001.77,VALID,0,VALID,92.8525,VALID,0,VALID,22.199,VALID,105,VALID,0,
2009-12-17, 02:06:04,VALID,1001.8,VALID,0,VALID,93.089,VALID,0,VALID,22.199,VALID,105,VALID,0,
2009-12-17, 02:07:04,VALID,1001.78,VALID,0,VALID,93.1882,VALID,0,VALID,22.1795,VALID,105,VALID,0,
2009-12-17, 02:08:04,VALID,1001.79,VALID,0,VALID,93.1805,VALID,0,VALID,22.1795,VALID,105,VALID,0,
2009-12-17, 02:09:04,VALID,1001.75,VALID,0,VALID,93.0814,VALID,0,VALID,22.121,VALID,105,VALID,0,
2009-12-17, 02:10:04,VALID,1001.76,VALID,0,VALID,93.1729,VALID,0,VALID,22.0413,VALID,105,VALID,0,
2009-12-17, 02:11:04,VALID,1001.75,VALID,0,VALID,93.4323,VALID,0,VALID,22.121,VALID,105,VALID,0,
2009-12-17, 02:12:04,VALID,1001.71,VALID,0,VALID,93.6688,VALID,0,VALID,22.2202,VALID,105,VALID,0,
2009-12-17, 02:13:04,VALID,1001.73,VALID,0,VALID,93.7909,VALID,0,VALID,22.3161,VALID,102,VALID,0.286719,
2009-12-17, 02:14:04,VALID,1001.68,VALID,0,VALID,93.6307,VALID,0,VALID,22.3373,VALID,115,VALID,0.861328,
2009-12-17, 02:15:04,VALID,1001.68,VALID,0,VALID,93.501,VALID,0,VALID,22.2576,VALID,115,VALID,0.494141,
2009-12-17, 02:16:04,VALID,1001.72,VALID,0,VALID,93.4781,VALID,0,VALID,22.2397,VALID,115,VALID,0.108984,
2009-12-17, 02:17:04,VALID,1001.73,VALID,0,VALID,93.4552,VALID,0,VALID,22.16,VALID,115,VALID,0.133984,
2009-12-17, 02:18:04,VALID,1001.73,VALID,0,VALID,93.4628,VALID,0,VALID,22.1795,VALID,115,VALID,0.0851562,
2009-12-17, 02:19:04,VALID,1001.73,VALID,0,VALID,93.501,VALID,0,VALID,22.1795,VALID,115,VALID,0.08125,
2009-12-17, 02:20:04,VALID,1001.73,VALID,0,VALID,93.5086,VALID,0,VALID,22.2007,VALID,115,VALID,0.189453,
2009-12-17, 02:21:04,VALID,1001.74,VALID,0,VALID,93.5544,VALID,0,VALID,22.1795,VALID,83,VALID,0,
2009-12-17, 02:22:04,VALID,1001.72,VALID,0,VALID,93.5926,VALID,0,VALID,22.2007,VALID,81,VALID,0.387891,
2009-12-17, 02:23:04,VALID,1001.71,VALID,0,VALID,93.5926,VALID,0,VALID,22.2397,VALID,64,VALID,0.5625,
2009-12-17, 02:24:04,VALID,1001.71,VALID,0,VALID,93.6383,VALID,0,VALID,22.2381,VALID,62,VALID,0.448438,
2009-12-17, 02:25:04,VALID,1001.73,VALID,0,VALID,93.5773,VALID,0,VALID,22.2202,VALID,61,VALID,0.384766,
2009-12-17, 02:26:04,VALID,1001.72,VALID,0,VALID,93.5773,VALID,0,VALID,22.2397,VALID,61,VALID,0.361719,
2009-12-17, 02:27:04,VALID,1001.71,VALID,0,VALID,93.3408,VALID,0,VALID,22.1405,VALID,61,VALID,0.487891,
2009-12-17, 02:28:04,VALID,1001.69,VALID,0,VALID,93.1348,VALID,0,VALID,21.9862,VALID,61,VALID,0.422266,
2009-12-17, 02:29:04,VALID,1001.72,VALID,0,VALID,93.089,VALID,0,VALID,21.8887,VALID,61,VALID,0.319531,
2009-12-17, 02:30:04,VALID,1001.69,VALID,0,VALID,93.1195,VALID,0,VALID,21.809,VALID,61,VALID,0.259766,
2009-12-17, 02:31:04,VALID,1001.72,VALID,0,VALID,93.2263,VALID,0,VALID,21.7911,VALID,61,VALID,0,
2009-12-17, 02:32:04,VALID,1001.71,VALID,0,VALID,93.3789,VALID,0,VALID,21.7895,VALID,61,VALID,0,
2009-12-17, 02:33:04,VALID,1001.71,VALID,0,VALID,93.3942,VALID,0,VALID,21.77,VALID,61,VALID,0,
2009-12-17, 02:34:04,VALID,1001.75,VALID,0,VALID,93.3713,VALID,0,VALID,21.7505,VALID,61,VALID,0,
2009-12-17, 02:35:04,VALID,1001.76,VALID,0,VALID,93.4323,VALID,0,VALID,21.7911,VALID,61,VALID,0,
2009-12-17, 02:36:04,VALID,1001.73,VALID,0,VALID,93.5544,VALID,0,VALID,21.8496,VALID,61,VALID,0,
2009-12-17, 02:37:04,VALID,1001.75,VALID,0,VALID,93.5315,VALID,0,VALID,21.8496,VALID,61,VALID,0,
2009-12-17, 02:38:04,VALID,1001.72,VALID,0,VALID,93.5391,VALID,0,VALID,21.8496,VALID,61,VALID,0,
2009-12-17, 02:39:04,VALID,1001.74,VALID,0,VALID,93.6154,VALID,0,VALID,21.8285,VALID,61,VALID,0,
2009-12-17, 02:40:04,VALID,1001.73,VALID,0,VALID,93.7223,VALID,0,VALID,21.9277,VALID,61,VALID,0,
2009-12-17, 02:41:04,VALID,1001.72,VALID,0,VALID,93.7757,VALID,0,VALID,21.9455,VALID,61,VALID,0,
2009-12-17, 02:42:04,VALID,1001.74,VALID,0,VALID,93.8138,VALID,0,VALID,22.004,VALID,64,VALID,0,
2009-12-17, 02:43:04,VALID,1001.77,VALID,0,VALID,93.8291,VALID,0,VALID,22.0837,VALID,69,VALID,0,
2009-12-17, 02:44:04,VALID,1001.79,VALID,0,VALID,93.8977,VALID,0,VALID,22.1227,VALID,93,VALID,0,
2009-12-17, 02:45:04,VALID,1001.79,VALID,0,VALID,93.9359,VALID,0,VALID,22.199,VALID,93,VALID,0,
2009-12-17, 02:46:04,VALID,1001.78,VALID,0,VALID,93.9511,VALID,0,VALID,22.2788,VALID,94,VALID,0,
2009-12-17, 02:47:04,VALID,1001.81,VALID,0,VALID,93.9435,VALID,0,VALID,22.2771,VALID,94,VALID,0,
2009-12-17, 02:48:04,VALID,1001.81,VALID,0,VALID,93.8748,VALID,0,VALID,22.3178,VALID,94,VALID,0,
2009-12-17, 02:49:04,VALID,1001.78,VALID,0,VALID,93.8825,VALID,0,VALID,22.3178,VALID,94,VALID,0,
2009-12-17, 02:50:04,VALID,1001.81,VALID,0,VALID,93.8825,VALID,0,VALID,22.2966,VALID,94,VALID,0,
2009-12-17, 02:51:04,VALID,1001.82,VALID,0,VALID,93.8367,VALID,0,VALID,22.3178,VALID,94,VALID,0,
2009-12-17, 02:52:04,VALID,1001.87,VALID,0,VALID,93.7909,VALID,0,VALID,22.2788,VALID,94,VALID,0,
2009-12-17, 02:53:04,VALID,1001.91,VALID,0,VALID,93.707,VALID,0,VALID,22.2397,VALID,94,VALID,0,
2009-12-17, 02:54:04,VALID,1001.91,VALID,0,VALID,93.6994,VALID,0,VALID,22.1812,VALID,94,VALID,0,
2009-12-17, 02:55:04,VALID,1001.92,VALID,0,VALID,93.7451,VALID,0,VALID,22.2202,VALID,94,VALID,0,
2009-12-17, 02:56:04,VALID,1001.9,VALID,0,VALID,93.7451,VALID,0,VALID,22.2592,VALID,94,VALID,0,
2009-12-17, 02:57:04,VALID,1001.91,VALID,0,VALID,93.7223,VALID,0,VALID,22.2381,VALID,215,VALID,0,
2009-12-17, 02:58:04,VALID,1001.91,VALID,0,VALID,93.7528,VALID,0,VALID,22.2788,VALID,214,VALID,0,
2009-12-17, 02:59:04,VALID,1001.89,VALID,0,VALID,93.6688,VALID,0,VALID,22.2397,VALID,214,VALID,0,
2009-12-17, 03:00:04,VALID,1001.9,VALID,0,VALID,93.6994,VALID,0,VALID,22.199,VALID,214,VALID,0,
2009-12-17, 03:01:04,VALID,1001.9,VALID,0,VALID,93.562,VALID,0,VALID,22.16,VALID,214,VALID,0,
2009-12-17, 03:02:04,VALID,1001.89,VALID,0,VALID,93.6688,VALID,0,VALID,22.1812,VALID,214,VALID,0,
2009-12-17, 03:03:04,VALID,1001.87,VALID,0,VALID,93.6994,VALID,0,VALID,22.2007,VALID,214,VALID,0,
2009-12-17, 03:04:04,VALID,1001.85,VALID,0,VALID,93.7604,VALID,0,VALID,22.2788,VALID,197,VALID,0,
2009-12-17, 03:05:04,VALID,1001.84,VALID,0,VALID,93.768,VALID,0,VALID,22.2983,VALID,185,VALID,0,
2009-12-17, 03:06:04,VALID,1001.83,VALID,0,VALID,93.7985,VALID,0,VALID,22.3178,VALID,152,VALID,0,
2009-12-17, 03:07:04,VALID,1001.83,VALID,0,VALID,93.7375,VALID,0,VALID,22.3356,VALID,142,VALID,0,
2009-12-17, 03:08:04,VALID,1001.82,VALID,0,VALID,93.6688,VALID,0,VALID,22.3568,VALID,136,VALID,0.874219,
2009-12-17, 03:09:04,VALID,1001.83,VALID,0,VALID,93.5773,VALID,0,VALID,22.3763,VALID,130,VALID,0.8875,
2009-12-17, 03:10:04,VALID,1001.82,VALID,0,VALID,93.356,VALID,0,VALID,22.3551,VALID,129,VALID,0.862891,
2009-12-17, 03:11:04,VALID,1001.84,VALID,0,VALID,93.2111,VALID,0,VALID,22.3763,VALID,129,VALID,0.821484,
2009-12-17, 03:12:04,VALID,1001.85,VALID,0,VALID,92.9288,VALID,0,VALID,22.3568,VALID,130,VALID,0.959375,
2009-12-17, 03:13:04,VALID,1001.86,VALID,0,VALID,92.7685,VALID,0,VALID,22.3551,VALID,136,VALID,0.928516,
2009-12-17, 03:14:04,VALID,1001.86,VALID,0,VALID,92.677,VALID,0,VALID,22.3551,VALID,144,VALID,0.889453,
2009-12-17, 03:15:04,VALID,1001.9,VALID,0,VALID,92.5549,VALID,0,VALID,22.3551,VALID,149,VALID,0.754297,
2009-12-17, 03:16:04,VALID,1001.88,VALID,0,VALID,92.4176,VALID,0,VALID,22.3763,VALID,151,VALID,0.728125,
2009-12-17, 03:17:04,VALID,1001.87,VALID,0,VALID,92.4176,VALID,0,VALID,22.3746,VALID,151,VALID,0.642969,
2009-12-17, 03:18:04,VALID,1001.88,VALID,0,VALID,92.4176,VALID,0,VALID,22.4153,VALID,151,VALID,0.551172,
2009-12-17, 03:19:04,VALID,1001.85,VALID,0,VALID,92.1963,VALID,0,VALID,22.4153,VALID,144,VALID,0.600781,
2009-12-17, 03:20:04,VALID,1001.86,VALID,0,VALID,91.9827,VALID,0,VALID,22.3958,VALID,137,VALID,0.685547,
2009-12-17, 03:21:04,VALID,1001.86,VALID,0,VALID,92.0743,VALID,0,VALID,22.3958,VALID,128,VALID,0.703516,
2009-12-17, 03:22:04,VALID,1001.86,VALID,0,VALID,91.9903,VALID,0,VALID,22.3763,VALID,119,VALID,0.807422,
2009-12-17, 03:23:04,VALID,1001.88,VALID,0,VALID,91.7614,VALID,0,VALID,22.3763,VALID,109,VALID,0.649609,
2009-12-17, 03:24:04,VALID,1001.93,VALID,0,VALID,91.5936,VALID,0,VALID,22.3178,VALID,100,VALID,0.758203,
2009-12-17, 03:25:04,VALID,1001.94,VALID,0,VALID,91.9674,VALID,0,VALID,22.3178,VALID,100,VALID,0.610156,
2009-12-17, 03:26:04,VALID,1001.96,VALID,0,VALID,92.2192,VALID,0,VALID,22.3568,VALID,100,VALID,0.376563,
2009-12-17, 03:27:04,VALID,1002.01,VALID,0,VALID,92.2268,VALID,0,VALID,22.3373,VALID,100,VALID,0.191797,
2009-12-17, 03:28:04,VALID,1002,VALID,0,VALID,92.2345,VALID,0,VALID,22.3373,VALID,100,VALID,0,
2009-12-17, 03:29:04,VALID,1002.01,VALID,0,VALID,92.2497,VALID,0,VALID,22.3373,VALID,100,VALID,0,
2009-12-17, 03:30:04,VALID,1002,VALID,0,VALID,92.1582,VALID,0,VALID,22.2771,VALID,100,VALID,0,
2009-12-17, 03:31:04,VALID,1002.01,VALID,0,VALID,92.1429,VALID,0,VALID,22.2592,VALID,100,VALID,0,
2009-12-17, 03:32:04,VALID,1001.99,VALID,0,VALID,92.1506,VALID,0,VALID,22.2397,VALID,100,VALID,0,
2009-12-17, 03:33:04,VALID,1001.97,VALID,0,VALID,91.9598,VALID,0,VALID,22.1617,VALID,100,VALID,0.379297,
2009-12-17, 03:34:04,VALID,1001.98,VALID,0,VALID,92.0285,VALID,0,VALID,22.082,VALID,100,VALID,0.476172,
2009-12-17, 03:35:04,VALID,1001.97,VALID,0,VALID,92.2192,VALID,0,VALID,22.0642,VALID,100,VALID,0.436719,
2009-12-17, 03:36:04,VALID,1001.97,VALID,0,VALID,92.3184,VALID,0,VALID,22.0447,VALID,100,VALID,0.331641,
2009-12-17, 03:37:04,VALID,1001.99,VALID,0,VALID,92.3184,VALID,0,VALID,22.0252,VALID,100,VALID,0.20625,
2009-12-17, 03:38:04,VALID,1002.01,VALID,0,VALID,92.0743,VALID,0,VALID,21.9277,VALID,100,VALID,0.162891,
2009-12-17, 03:39:04,VALID,1002.02,VALID,0,VALID,92.2574,VALID,0,VALID,21.8496,VALID,100,VALID,0.0304688,
2009-12-17, 03:40:04,VALID,1002.04,VALID,0,VALID,92.471,VALID,0,VALID,21.8496,VALID,100,VALID,0,
2009-12-17, 03:41:04,VALID,1002.05,VALID,0,VALID,92.5626,VALID,0,VALID,21.8285,VALID,100,VALID,0,
2009-12-17, 03:42:04,VALID,1002.05,VALID,0,VALID,92.6388,VALID,0,VALID,21.8106,VALID,98,VALID,0.185156,
2009-12-17, 03:43:04,VALID,1002.03,VALID,0,VALID,92.9822,VALID,0,VALID,21.8692,VALID,98,VALID,0,
2009-12-17, 03:44:04,VALID,1002.06,VALID,0,VALID,93.1577,VALID,0,VALID,21.9065,VALID,82,VALID,0,
2009-12-17, 03:45:04,VALID,1002.03,VALID,0,VALID,93.3713,VALID,0,VALID,21.965,VALID,81,VALID,0.806641,
2009-12-17, 03:46:04,VALID,1002.05,VALID,0,VALID,93.2263,VALID,0,VALID,22.0252,VALID,80,VALID,0.867969,
2009-12-17, 03:47:04,VALID,1002.03,VALID,0,VALID,92.9898,VALID,0,VALID,21.9472,VALID,73,VALID,0.695313,
2009-12-17, 03:48:04,VALID,1002.04,VALID,0,VALID,92.9669,VALID,0,VALID,21.9277,VALID,80,VALID,0.602344,
2009-12-17, 03:49:04,VALID,1002.03,VALID,0,VALID,93.1195,VALID,0,VALID,21.9862,VALID,81,VALID,0.183203,
2009-12-17, 03:50:04,VALID,1002.07,VALID,0,VALID,93.0051,VALID,0,VALID,21.9667,VALID,81,VALID,0.110156,
2009-12-17, 03:51:04,VALID,1002.08,VALID,0,VALID,92.9059,VALID,0,VALID,21.926,VALID,81,VALID,0,
2009-12-17, 03:52:04,VALID,1002.07,VALID,0,VALID,92.9517,VALID,0,VALID,21.9472,VALID,81,VALID,0.227344,
2009-12-17, 03:53:04,VALID,1002.06,VALID,0,VALID,92.9364,VALID,0,VALID,21.9472,VALID,81,VALID,0.396484,
2009-12-17, 03:54:04,VALID,1002.07,VALID,0,VALID,92.7457,VALID,0,VALID,21.9082,VALID,56,VALID,0.451562,
2009-12-17, 03:55:04,VALID,1002.06,VALID,0,VALID,92.6388,VALID,0,VALID,21.848,VALID,48,VALID,0.567969,
2009-12-17, 03:56:04,VALID,1002.07,VALID,0,VALID,92.532,VALID,0,VALID,21.7911,VALID,48,VALID,0.441016,